Hourly Weather Alkadar

Today, 26 November, Thursday

Time Temperature Precipitation Wind Pressure Humidity
00:00 +1°C° 0 mm 1 mps 708 mmHg 80%
01:00 +1°C° 0 mm 1 mps 708 mmHg 78%
02:00 +1°C° 0 mm 1 mps 708 mmHg 77%
03:00 +1°C° 0 mm 1 mps 708 mmHg 76%
04:00 +1°C° 0 mm 1 mps 708 mmHg 75%
05:00 +1°C° 0 mm 1 mps 708 mmHg 75%
06:00 +1°C° 0 mm 1 mps 708 mmHg 74%
07:00 +2°C° 0 mm 1 mps 708 mmHg 74%
08:00 +2°C° 0 mm 1 mps 708 mmHg 73%
09:00 +3°C° 0 mm 1 mps 708 mmHg 73%
10:00 +4°C° 0 mm 1 mps 708 mmHg 75%
11:00 +4°C° 0 mm 1 mps 708 mmHg 77%
12:00 +4°C° 0 mm 1 mps 708 mmHg 79%
13:00 +4°C° 0.1 mm 1 mps 708 mmHg 82%
14:00 +4°C° 0.1 mm 1 mps 707 mmHg 84%
15:00 +4°C° 0.1 mm 1 mps 707 mmHg 87%
16:00 +3°C° 0 mm 1 mps 708 mmHg 88%
17:00 +3°C° 0 mm 1 mps 708 mmHg 90%
18:00 +2°C° 0 mm 1 mps 708 mmHg 91%
19:00 +2°C° 0 mm 1 mps 708 mmHg 89%
20:00 +2°C° 0 mm 1 mps 708 mmHg 86%
21:00 +2°C° 0 mm 1 mps 708 mmHg 83%
22:00 +2°C° 0 mm 1 mps 708 mmHg 84%
23:00 +2°C° 0 mm 1 mps 708 mmHg 85%

Tomorrow, 27 November, Friday

Time Temperature Precipitation Wind Pressure Humidity
00:00 +1°C° 0 mm 1 mps 709 mmHg 85%
01:00 +1°C° 0.2 mm 1 mps 709 mmHg 88%
02:00 +1°C° 0.2 mm 1 mps 709 mmHg 90%
03:00 +1°C° 0.2 mm 1 mps 710 mmHg 92%
04:00 +1°C° 0.4 mm 1 mps 710 mmHg 91%
05:00 +1°C° 0.4 mm 1 mps 711 mmHg 90%
06:00 +1°C° 0.4 mm 1 mps 711 mmHg 89%
07:00 +1°C° 0.1 mm 1 mps 712 mmHg 87%
08:00 +2°C° 0.1 mm 1 mps 712 mmHg 85%
09:00 +2°C° 0.1 mm 1 mps 713 mmHg 84%
10:00 +2°C° 0 mm 1 mps 713 mmHg 84%
11:00 +3°C° 0 mm 1 mps 713 mmHg 85%
12:00 +2°C° 0 mm 2 mps 713 mmHg 85%
13:00 +3°C° 0 mm 1 mps 713 mmHg 86%
14:00 +3°C° 0 mm 1 mps 713 mmHg 87%
15:00 +3°C° 0 mm 1 mps 714 mmHg 88%
16:00 +3°C° 0 mm 1 mps 714 mmHg 85%
17:00 +2°C° 0 mm 1 mps 714 mmHg 82%
18:00 +2°C° 0 mm 1 mps 714 mmHg 78%
19:00 +1°C° 0 mm 2 mps 714 mmHg 73%
20:00 +1°C° 0 mm 2 mps 714 mmHg 69%
21:00 +1°C° 0 mm 2 mps 714 mmHg 64%
22:00 +1°C° 0 mm 2 mps 714 mmHg 61%
23:00 +1°C° 0 mm 2 mps 714 mmHg 58%

Day after tomorrow, 28 November, Saturday

Time Temperature Precipitation Wind Pressure Humidity
00:00 +1°C° 0 mm 2 mps 714 mmHg 56%
01:00 +2°C° 0 mm 2 mps 714 mmHg 52%
02:00 +2°C° 0 mm 2 mps 713 mmHg 49%
03:00 +1°C° 0 mm 3 mps 713 mmHg 46%
04:00 +3°C° 0 mm 2 mps 713 mmHg 44%
05:00 +3°C° 0 mm 2 mps 713 mmHg 41%
06:00 +3°C° 0 mm 2 mps 712 mmHg 39%
07:00 +4°C° 0 mm 2 mps 712 mmHg 39%
08:00 +5°C° 0 mm 2 mps 712 mmHg 39%
09:00 +8°C° 0 mm 1 mps 712 mmHg 39%
10:00 +9°C° 0 mm 1 mps 712 mmHg 41%
11:00 +10°C° 0 mm 1 mps 712 mmHg 43%
12:00 +10°C° 0 mm 1 mps 712 mmHg 45%
13:00 +10°C° 0 mm 1 mps 711 mmHg 48%
14:00 +9°C° 0 mm 1 mps 711 mmHg 51%
15:00 +8°C° 0 mm 0 mps 711 mmHg 54%
16:00 +8°C° 0 mm 1 mps 711 mmHg 52%
17:00 +7°C° 0 mm 1 mps 711 mmHg 51%
18:00 +4°C° 0 mm 2 mps 711 mmHg 49%
19:00 +4°C° 0 mm 2 mps 711 mmHg 48%
20:00 +4°C° 0 mm 2 mps 711 mmHg 47%
21:00 +5°C° 0 mm 1 mps 711 mmHg 45%
22:00 +5°C° 0 mm 1 mps 711 mmHg 45%
23:00 +5°C° 0 mm 1 mps 711 mmHg 45%

29 November, Sunday

Time Temperature Precipitation Wind Pressure Humidity
00:00 +5°C° 0 mm 1 mps 711 mmHg 46%
01:00 +5°C° 0 mm 1 mps 711 mmHg 48%
02:00 +5°C° 0 mm 1 mps 711 mmHg 50%
03:00 +5°C° 0 mm 1 mps 710 mmHg 52%
04:00 +5°C° 0 mm 1 mps 710 mmHg 53%
05:00 +5°C° 0 mm 1 mps 710 mmHg 53%
06:00 +5°C° 0 mm 1 mps 710 mmHg 54%
07:00 +6°C° 0 mm 1 mps 710 mmHg 57%
08:00 +7°C° 0 mm 1 mps 711 mmHg 60%
09:00 +6°C° 0 mm 0 mps 711 mmHg 62%
10:00 +8°C° 0 mm 1 mps 711 mmHg 68%
11:00 +8°C° 0 mm 1 mps 711 mmHg 73%
12:00 +8°C° 0 mm 1 mps 711 mmHg 78%
13:00 +8°C° 0.1 mm 1 mps 711 mmHg 81%
14:00 +8°C° 0.1 mm 1 mps 711 mmHg 84%
15:00 +7°C° 0.1 mm 1 mps 711 mmHg 87%
16:00 +7°C° 0.5 mm 1 mps 711 mmHg 90%
17:00 +7°C° 0.5 mm 1 mps 711 mmHg 92%
18:00 +7°C° 0.5 mm 1 mps 711 mmHg 95%
19:00 +7°C° 0.4 mm 1 mps 712 mmHg 96%
20:00 +6°C° 0.4 mm 1 mps 712 mmHg 96%
21:00 +6°C° 0.4 mm 1 mps 712 mmHg 97%
22:00 +6°C° 0.4 mm 1 mps 712 mmHg 97%
23:00 +5°C° 0.4 mm 2 mps 712 mmHg 97%

30 November, Monday

Time Temperature Precipitation Wind Pressure Humidity
00:00 +5°C° 0.4 mm 2 mps 712 mmHg 97%
01:00 +5°C° 0.3 mm 2 mps 711 mmHg 96%
02:00 +5°C° 0.3 mm 2 mps 711 mmHg 96%
03:00 +5°C° 0.3 mm 1 mps 711 mmHg 96%
04:00 +5°C° 0.4 mm 1 mps 711 mmHg 96%
05:00 +5°C° 0.4 mm 1 mps 711 mmHg 96%
06:00 +5°C° 0.4 mm 1 mps 711 mmHg 97%
07:00 +4°C° 0.5 mm 1 mps 711 mmHg 97%
08:00 +4°C° 0.5 mm 1 mps 711 mmHg 97%
09:00 +4°C° 0.5 mm 1 mps 711 mmHg 97%
10:00 +4°C° 0.2 mm 1 mps 711 mmHg 97%
11:00 +4°C° 0.2 mm 2 mps 711 mmHg 97%
12:00 +4°C° 0.2 mm 2 mps 711 mmHg 97%
13:00 +3°C° 0.3 mm 2 mps 711 mmHg 97%
14:00 +3°C° 0.3 mm 2 mps 710 mmHg 97%
15:00 +3°C° 0.3 mm 2 mps 710 mmHg 97%
16:00 +4°C° 0.3 mm 1 mps 710 mmHg 97%
17:00 +4°C° 0.3 mm 1 mps 711 mmHg 97%
18:00 +4°C° 0.3 mm 1 mps 711 mmHg 97%
19:00 +4°C° 0.3 mm 1 mps 711 mmHg 97%
20:00 +3°C° 0.3 mm 1 mps 711 mmHg 97%
21:00 +3°C° 0.3 mm 1 mps 711 mmHg 97%
22:00 +3°C° 0.2 mm 1 mps 710 mmHg 96%
23:00 +3°C° 0.2 mm 1 mps 710 mmHg 96%

1 December, Tuesday

Time Temperature Precipitation Wind Pressure Humidity
00:00 +3°C° 0.2 mm 1 mps 710 mmHg 95%
01:00 +3°C° 0.1 mm 1 mps 710 mmHg 95%
02:00 +3°C° 0.1 mm 1 mps 710 mmHg 94%
03:00 +3°C° 0.1 mm 1 mps 710 mmHg 94%
04:00 +3°C° 0.1 mm 1 mps 710 mmHg 93%
05:00 +3°C° 0.1 mm 1 mps 710 mmHg 92%
06:00 +3°C° 0.1 mm 1 mps 710 mmHg 91%
07:00 +3°C° 0.2 mm 1 mps 710 mmHg 90%
08:00 +4°C° 0.2 mm 1 mps 710 mmHg 89%
09:00 +4°C° 0.2 mm 1 mps 710 mmHg 87%
10:00 +4°C° 0 mm 1 mps 710 mmHg 87%
11:00 +4°C° 0 mm 2 mps 710 mmHg 87%
12:00 +4°C° 0 mm 2 mps 710 mmHg 87%
13:00 +4°C° 0 mm 2 mps 710 mmHg 89%
14:00 +4°C° 0 mm 2 mps 709 mmHg 91%
15:00 +4°C° 0 mm 2 mps 709 mmHg 93%
16:00 +4°C° 0 mm 2 mps 709 mmHg 94%
17:00 +4°C° 0 mm 1 mps 710 mmHg 94%
18:00 +4°C° 0 mm 1 mps 710 mmHg 95%
19:00 +4°C° 0 mm 1 mps 710 mmHg 94%
20:00 +4°C° 0 mm 1 mps 710 mmHg 92%
21:00 +4°C° 0 mm 1 mps 710 mmHg 91%
22:00 +4°C° 0.1 mm 1 mps 710 mmHg 90%
23:00 +4°C° 0.1 mm 1 mps 710 mmHg 88%
Show more